| time (UTC) | temp F | wind direction | speed knots | gust knots | rain 1hr in | rain 24hr in | rain mn in | humidity % | barometer mb |
| 20260507020813 | 41 | 39 | 0.0 | 0.0 | 0.00 | 0.01 | 0.00 | 99 | 1008.2 |
| 20260507015313 | 41 | 157 | 0.0 | 0.0 | 0.00 | 0.01 | 0.00 | 99 | 1008.2 |
| 20260507013813 | 41 | 167 | 0.0 | 0.0 | 0.00 | 0.01 | 0.00 | 99 | 1008.2 |
| 20260507012313 | 41 | 167 | 0.0 | 0.0 | 0.00 | 0.01 | 0.00 | 99 | 1008.6 |
| 20260507010813 | 41 | 167 | 0.0 | 0.0 | 0.00 | 0.01 | 0.00 | 99 | 1008.2 |
| 20260507005313 | 41 | 170 | 1.7 | 4.3 | 0.00 | 0.01 | 0.00 | 99 | 1007.9 |
| 20260507003813 | 41 | 158 | 0.0 | 0.0 | 0.00 | 0.01 | 0.00 | 99 | 1007.9 |
| 20260507002313 | 41 | 181 | 0.0 | 0.0 | 0.00 | 0.01 | 0.00 | 99 | 1007.6 |
| 20260507000813 | 42 | 147 | 0.0 | 0.0 | 0.00 | 0.01 | 0.00 | 99 | 1007.6 |
| 20260506235313 | 42 | 166 | 0.0 | 2.6 | 0.00 | 0.01 | 0.00 | 99 | 1007.6 |
| 20260506233812 | 42 | 166 | 0.0 | 2.6 | 0.00 | 0.01 | 0.00 | 99 | 1007.6 |
| 20260506232313 | 42 | 166 | 0.0 | 2.6 | 0.00 | 0.01 | 0.00 | 99 | 1007.6 |
| 20260506230813 | 42 | 166 | 0.0 | 2.6 | 0.00 | 0.01 | 0.00 | 99 | 1007.6 |
| 20260506225313 | 42 | 160 | 0.0 | 0.0 | 0.00 | 0.01 | 0.00 | 99 | 1007.9 |
| 20260506223813 | 42 | 159 | 0.9 | 2.6 | 0.00 | 0.01 | 0.00 | 99 | 1007.9 |
| 20260506222313 | 42 | 162 | 0.0 | 0.0 | 0.00 | 0.00 | 0.00 | 99 | 1007.9 |
| 20260506220813 | 42 | 157 | 0.0 | 0.0 | 0.00 | 0.00 | 0.00 | 99 | 1007.6 |
| 20260506215313 | 42 | 174 | 0.0 | 0.0 | 0.00 | 0.34 | 0.00 | 99 | 1007.6 |
| 20260506213812 | 42 | 153 | 0.0 | 0.0 | 0.00 | 0.34 | 0.00 | 99 | 1007.6 |
| 20260506212313 | 42 | 152 | 0.0 | 2.6 | 0.00 | 0.34 | 0.00 | 99 | 1007.6 |
| 20260506210813 | 42 | 160 | 0.0 | 2.6 | 0.00 | 0.34 | 0.00 | 99 | 1007.6 |
| 20260506205312 | 42 | 168 | 0.0 | 2.6 | 0.00 | 0.34 | 0.00 | 99 | 1007.2 |
| 20260506203812 | 42 | 152 | 0.0 | 0.0 | 0.00 | 0.34 | 0.00 | 99 | 1007.2 |
| 20260506202313 | 42 | 90 | 2.6 | 4.3 | 0.00 | 0.34 | 0.00 | 99 | 1006.9 |
| 20260506175312 | 42 | 160 | 0.9 | 2.6 | 0.00 | 0.28 | 0.00 | 99 | 1006.5 |
| 20260506173812 | 42 | 160 | 0.9 | 2.6 | 0.00 | 0.28 | 0.00 | 99 | 1006.5 |
| 20260506172312 | 42 | 160 | 0.9 | 2.6 | 0.00 | 0.28 | 0.00 | 99 | 1006.5 |
| 20260506170812 | 42 | 160 | 0.9 | 2.6 | 0.00 | 0.28 | 0.00 | 99 | 1006.5 |
| 20260506165312 | 42 | 216 | 1.7 | 2.6 | 0.07 | 0.28 | 0.00 | 99 | 1006.2 |
| 20260506163812 | 42 | 133 | 4.3 | 6.1 | 0.00 | 0.27 | 0.00 | 99 | 1006.2 |
| 20260506162312 | 42 | 162 | 0.9 | 2.6 | 0.00 | 0.26 | 0.00 | 99 | 1006.2 |
| 20260506160812 | 42 | 83 | 3.5 | 6.1 | 0.00 | 0.26 | 0.00 | 99 | 1006.2 |
| 20260506155312 | 42 | 160 | 6.1 | 6.1 | 0.00 | 0.26 | 0.00 | 99 | 1006.2 |
| 20260506153812 | 42 | 151 | 2.6 | 4.3 | 0.07 | 0.26 | 0.00 | 99 | 1006.5 |
| 20260506152312 | 42 | 215 | 0.0 | 2.6 | 0.00 | 0.25 | 0.00 | 99 | 1006.2 |
| 20260506150812 | 42 | 62 | 3.5 | 4.3 | 0.00 | 0.25 | 0.00 | 99 | 1006.2 |
| 20260506145312 | 42 | 2 | 0.9 | 2.6 | 0.00 | 0.24 | 0.00 | 99 | 1006.2 |
| 20260506143811 | 42 | 202 | 0.0 | 2.6 | 0.00 | 0.24 | 0.00 | 99 | 1006.2 |
| 20260506142312 | 42 | 70 | 4.3 | 6.1 | 0.00 | 0.24 | 0.00 | 99 | 1006.5 |
| 20260506140814 | 42 | 151 | 7.0 | 8.7 | 0.00 | 0.22 | 0.00 | 99 | 1006.5 |
| 20260506135313 | 42 | 136 | 0.9 | 2.6 | 0.00 | 0.22 | 0.00 | 99 | 1006.5 |
| 20260506133813 | 42 | 345 | 0.9 | 2.6 | 0.07 | 0.22 | 0.00 | 99 | 1006.5 |
| 20260506132313 | 42 | 174 | 3.5 | 4.3 | 0.00 | 0.21 | 0.00 | 99 | 1006.5 |
| 20260506120813 | 42 | 156 | 0.9 | 2.6 | 0.00 | 0.21 | 0.00 | 99 | 1006.5 |
| 20260506115313 | 42 | 156 | 0.9 | 2.6 | 0.00 | 0.21 | 0.00 | 99 | 1006.5 |
| 20260506113813 | 42 | 156 | 0.9 | 2.6 | 0.00 | 0.21 | 0.00 | 99 | 1006.5 |
| 20260506112313 | 42 | 156 | 0.9 | 2.6 | 0.00 | 0.21 | 0.00 | 99 | 1006.5 |
| 20260506110813 | 42 | 153 | 0.9 | 2.6 | 0.00 | 0.21 | 0.00 | 99 | 1006.2 |
| 20260506105313 | 42 | 147 | 2.6 | 4.3 | 0.00 | 0.21 | 0.00 | 99 | 1006.5 |
| 20260506103813 | 43 | 136 | 0.9 | 2.6 | 0.00 | 0.21 | 0.00 | 99 | 1006.5 |
| 20260506102313 | 43 | 125 | 0.0 | 2.6 | 0.07 | 0.21 | 0.00 | 99 | 1006.9 |
| 20260506100815 | 43 | 37 | 0.9 | 2.6 | 0.07 | 0.19 | 0.00 | 99 | 1006.5 |
| 20260506095325 | 43 | 152 | 0.0 | 0.0 | 0.00 | 0.15 | 0.00 | 99 | 1006.9 |
| 20260506093814 | 44 | 145 | 1.7 | 2.6 | 0.00 | 0.15 | 0.00 | 99 | 1006.5 |
| 20260506092321 | 44 | 168 | 0.0 | 0.0 | 0.00 | 0.14 | 0.00 | 99 | 1006.5 |
| 20260506090818 | 44 | 167 | 0.0 | 0.0 | 0.00 | 0.14 | 0.00 | 99 | 1006.5 |
| 20260506085327 | 44 | 164 | 2.6 | 4.3 | 0.00 | 0.14 | 0.00 | 99 | 1006.2 |
| 20260506084432 | 44 | 137 | 0.0 | 2.6 | 0.00 | 0.14 | 0.00 | 99 | 1006.2 |
| 20260506082840 | 44 | 24 | 2.6 | 4.3 | 0.00 | 0.14 | 0.00 | 99 | 1006.5 |
| 20260506081036 | 45 | 101 | 4.3 | 6.1 | 0.07 | 0.13 | 0.00 | 99 | 1006.5 |
| 20260506072313 | 46 | 160 | 0.0 | 0.0 | 0.07 | 0.04 | 0.00 | 99 | 1007.6 |
| 20260506070813 | 46 | 160 | 0.0 | 0.0 | 0.07 | 0.04 | 0.00 | 99 | 1007.6 |
| 20260506062313 | 46 | 134 | 0.9 | 2.6 | 0.00 | 0.01 | 0.00 | 99 | 1007.6 |
| 20260506060813 | 46 | 156 | 0.9 | 2.6 | 0.07 | 0.01 | 0.00 | 99 | 1007.2 |
| 20260506050812 | 44 | 146 | 2.6 | 4.3 | 0.00 | 0.00 | 0.00 | 99 | 1007.6 |
| 20260506043812 | 44 | 117 | 0.0 | 2.6 | 0.00 | 0.00 | 0.00 | 99 | 1007.6 |
| 20260506042315 | 44 | 152 | 0.0 | 0.0 | 0.00 | 0.00 | 0.00 | 99 | 1007.6 |
| 20260506040812 | 44 | 150 | 0.0 | 0.0 | 0.00 | 0.00 | 0.00 | 99 | 1007.9 |
| 20260506035318 | 43 | 150 | 0.0 | 0.0 | 0.00 | 0.00 | 0.00 | 99 | 1007.9 |
| 20260506033813 | 43 | 161 | 0.0 | 0.0 | 0.00 | 0.00 | 0.00 | 99 | 1007.9 |
| 20260506032312 | 43 | 155 | 0.0 | 0.0 | 0.00 | 0.00 | 0.00 | 99 | 1007.9 |
| 20260506030812 | 43 | 161 | 0.0 | 0.0 | 0.00 | 0.00 | 0.00 | 99 | 1007.9 |
| 20260506023811 | 43 | 161 | 0.0 | 0.0 | 0.00 | 0.00 | 0.00 | 99 | 1008.2 |
| 20260506022321 | 43 | 161 | 0.0 | 0.0 | 0.00 | 0.00 | 0.00 | 99 | 1008.2 |